Location: Melizzano
(41.1500°N, 14.5000°E)
Time: 23:06:20
(UTC+00:00)

Cosmos 1354 Rocket - Pass Details

Date: 11 May 2021
Orbit: 763 x 784 km, 74.0° (Epoch: 24 June)

Event Time Altitude Azimuth Distance (km) Brightness Sun altitude
Rises 19:32:57 0° 204° (SSW) 3,213 7.1 -14.0°
Reaches altitude 10° 19:35:19 10° 207° (SSW) 2,291 6.3 -14.4°
Maximum altitude 19:40:30 70° 290° (WNW) 814 4.3 -15.1°
Drops below altitude 10° 19:45:44 10° 15° (NNE) 2,314 6.8 -15.8°
Sets 19:48:09 0° 18° (NNE) 3,247 7.6 -16.2°
